Location: Barcelona
(41.3830°N, 2.1830°E)
Time: 13:05:52
(UTC+01:00)

ISS - Pass Details

Date: 08 December 2019
Orbit: 411 x 421 km, 51.6° (Epoch: 11 December)

Event Time Altitude Azimuth Distance (km) Brightness Sun altitude
Rises 18:23:48 0° 309° (NW) 2,359 0.5 -11.4°
Reaches altitude 10° 18:25:59 10° 317° (NW) 1,495 -0.6 -11.8°
Maximum altitude 18:29:11 40° 29° (NNE) 626 -3.2 -12.3°
Enters shadow 18:31:00 21° 88° (E) 998 -2.4 -12.6°
